| time (UTC) | temp F | wind direction | speed knots | gust knots | rain 1hr in | rain 24hr in | rain mn in | humidity % | barometer mb |
| 20260502105632 | 43 | 165 | 0.9 | 2.6 | 0.00 | 0.00 | 0.00 | 64 | 1019.8 |
| 20260502104632 | 43 | 166 | 0.0 | 1.7 | 0.00 | 0.00 | 0.00 | 64 | 1019.7 |
| 20260502103629 | 43 | 166 | 1.7 | 5.2 | 0.00 | 0.00 | 0.00 | 62 | 1019.7 |
| 20260502102624 | 44 | 109 | 1.7 | 2.6 | 0.00 | 0.00 | 0.00 | 62 | 1019.7 |
| 20260502101641 | 44 | 109 | 0.9 | 1.7 | 0.00 | 0.00 | 0.00 | 61 | 1019.7 |
| 20260502100640 | 45 | 109 | 1.7 | 2.6 | 0.00 | 0.00 | 0.00 | 60 | 1019.8 |
| 20260502090631 | 45 | 202 | 5.2 | 7.8 | 0.00 | 0.00 | 0.00 | 59 | 1019.5 |
| 20260502070625 | 49 | 121 | 1.7 | 3.5 | 0.00 | 0.00 | 0.00 | 53 | 1019.5 |
| 20260502065628 | 50 | 121 | 1.7 | 2.6 | 0.00 | 0.00 | 0.00 | 52 | 1019.5 |
| 20260502064644 | 51 | 121 | 1.7 | 2.6 | 0.00 | 0.00 | 0.00 | 50 | 1019.5 |
| 20260502063619 | 51 | 121 | 0.0 | 1.7 | 0.00 | 0.00 | 0.00 | 47 | 1019.4 |
| 20260502062615 | 52 | 121 | 1.7 | 2.6 | 0.00 | 0.00 | 0.00 | 46 | 1019.4 |
| 20260502060640 | 53 | 239 | 1.7 | 2.6 | 0.00 | 0.00 | 0.00 | 44 | 1019.2 |
| 20260502055617 | 54 | 244 | 1.7 | 4.3 | 0.00 | 0.00 | 0.00 | 43 | 1019.2 |
| 20260502054632 | 54 | 9 | 2.6 | 3.5 | 0.00 | 0.00 | 0.00 | 42 | 1019.2 |
| 20260502053627 | 54 | 182 | 2.6 | 8.7 | 0.00 | 0.00 | 0.00 | 40 | 1019.1 |
| 20260502052626 | 54 | 150 | 6.1 | 9.6 | 0.00 | 0.00 | 0.00 | 41 | 1019.0 |
| 20260502051622 | 53 | 157 | 5.2 | 8.7 | 0.00 | 0.00 | 0.00 | 43 | 1019.0 |
| 20260502050618 | 54 | 135 | 3.5 | 7.0 | 0.00 | 0.00 | 0.00 | 44 | 1019.1 |
| 20260502045621 | 54 | 155 | 4.3 | 7.8 | 0.00 | 0.00 | 0.00 | 44 | 1019.0 |
| 20260502044615 | 54 | 140 | 4.3 | 8.7 | 0.00 | 0.00 | 0.00 | 44 | 1019.0 |
| 20260502043631 | 55 | 128 | 6.1 | 7.8 | 0.00 | 0.00 | 0.00 | 44 | 1019.0 |
| 20260502042624 | 55 | 134 | 4.3 | 6.1 | 0.00 | 0.00 | 0.00 | 44 | 1019.0 |
| 20260502041624 | 56 | 119 | 4.3 | 6.1 | 0.00 | 0.00 | 0.00 | 43 | 1018.9 |
| 20260502040639 | 56 | 141 | 3.5 | 4.3 | 0.00 | 0.00 | 0.00 | 42 | 1018.9 |
| 20260502035637 | 56 | 141 | 1.7 | 6.1 | 0.00 | 0.00 | 0.00 | 43 | 1018.9 |
| 20260502034631 | 57 | 141 | 4.3 | 6.1 | 0.00 | 0.00 | 0.00 | 42 | 1018.7 |
| 20260502033647 | 57 | 155 | 4.3 | 6.1 | 0.00 | 0.00 | 0.00 | 41 | 1018.6 |
| 20260502032645 | 58 | 163 | 3.5 | 5.2 | 0.00 | 0.00 | 0.00 | 40 | 1018.5 |
| 20260502031615 | 58 | 173 | 4.3 | 6.1 | 0.00 | 0.00 | 0.00 | 38 | 1018.3 |
| 20260502030631 | 59 | 238 | 2.6 | 3.5 | 0.00 | 0.00 | 0.00 | 37 | 1018.1 |
| 20260502025626 | 60 | 360 | 0.0 | 0.0 | 0.00 | 0.00 | 0.00 | 36 | 1017.9 |
| 20260502024626 | 61 | 360 | 0.0 | 0.0 | 0.00 | 0.00 | 0.00 | 33 | 1017.8 |
| 20260502023622 | 62 | 360 | 0.0 | 2.6 | 0.00 | 0.00 | 0.00 | 32 | 1017.7 |
| 20260502022615 | 64 | 5 | 0.0 | 2.6 | 0.00 | 0.00 | 0.00 | 31 | 1017.7 |
| 20260502021615 | 64 | 311 | 0.9 | 1.7 | 0.00 | 0.00 | 0.00 | 29 | 1017.6 |
| 20260502020632 | 65 | 311 | 0.0 | 3.5 | 0.00 | 0.00 | 0.00 | 27 | 1017.6 |
| 20260502015646 | 65 | 343 | 0.9 | 4.3 | 0.00 | 0.00 | 0.00 | 27 | 1017.5 |
| 20260502014621 | 65 | 329 | 3.5 | 7.0 | 0.00 | 0.00 | 0.00 | 27 | 1017.5 |
| 20260502013620 | 65 | 318 | 3.5 | 8.7 | 0.00 | 0.00 | 0.00 | 27 | 1017.5 |
| 20260502012653 | 65 | 297 | 4.3 | 8.7 | 0.00 | 0.00 | 0.00 | 26 | 1017.4 |
| 20260502011624 | 65 | 316 | 5.2 | 8.7 | 0.00 | 0.00 | 0.00 | 27 | 1017.4 |
| 20260502010618 | 65 | 302 | 7.0 | 11.3 | 0.00 | 0.00 | 0.00 | 27 | 1017.4 |
| 20260502005616 | 66 | 315 | 7.8 | 11.3 | 0.00 | 0.00 | 0.00 | 27 | 1017.4 |
| 20260502004631 | 66 | 275 | 7.0 | 10.4 | 0.00 | 0.00 | 0.00 | 26 | 1017.4 |
| 20260502003627 | 66 | 305 | 9.6 | 14.8 | 0.00 | 0.00 | 0.00 | 27 | 1017.4 |
| 20260502002624 | 66 | 302 | 7.8 | 13.0 | 0.00 | 0.00 | 0.00 | 26 | 1017.4 |
| 20260502001623 | 66 | 283 | 7.8 | 13.9 | 0.00 | 0.00 | 0.00 | 27 | 1017.5 |
| 20260502000632 | 66 | 306 | 7.8 | 13.0 | 0.00 | 0.00 | 0.00 | 27 | 1017.5 |
| 20260501235627 | 66 | 330 | 7.0 | 13.9 | 0.00 | 0.00 | 0.00 | 27 | 1017.4 |
| 20260501234621 | 66 | 292 | 10.4 | 13.0 | 0.00 | 0.00 | 0.00 | 27 | 1017.4 |
| 20260501233622 | 66 | 288 | 9.6 | 14.8 | 0.00 | 0.00 | 0.00 | 26 | 1017.5 |
| 20260501232618 | 66 | 330 | 7.0 | 13.0 | 0.00 | 0.00 | 0.00 | 27 | 1017.6 |
| 20260501231615 | 66 | 325 | 8.7 | 13.0 | 0.00 | 0.00 | 0.00 | 26 | 1017.7 |
| 20260501230614 | 66 | 306 | 8.7 | 13.9 | 0.00 | 0.00 | 0.00 | 25 | 1017.8 |
| 20260501225629 | 66 | 334 | 7.8 | 11.3 | 0.00 | 0.00 | 0.00 | 28 | 1017.9 |
| 20260501224621 | 66 | 298 | 7.8 | 13.0 | 0.00 | 0.00 | 0.00 | 28 | 1017.9 |
| 20260501223617 | 66 | 315 | 7.8 | 13.0 | 0.00 | 0.00 | 0.00 | 28 | 1018.0 |
| 20260501222636 | 66 | 313 | 9.6 | 13.0 | 0.00 | 0.00 | 0.00 | 28 | 1018.2 |
| 20260501221628 | 66 | 331 | 7.8 | 11.3 | 0.00 | 0.00 | 0.00 | 29 | 1018.3 |
| 20260501220645 | 66 | 355 | 6.1 | 13.0 | 0.00 | 0.00 | 0.00 | 27 | 1018.4 |
| 20260501215617 | 65 | 313 | 5.2 | 12.2 | 0.00 | 0.00 | 0.00 | 27 | 1018.6 |
| 20260501214616 | 65 | 333 | 7.8 | 14.8 | 0.00 | 0.00 | 0.00 | 29 | 1018.7 |
| 20260501213633 | 65 | 336 | 7.0 | 14.8 | 0.00 | 0.00 | 0.00 | 28 | 1018.8 |
| 20260501212649 | 65 | 306 | 8.7 | 13.0 | 0.00 | 0.00 | 0.00 | 30 | 1018.9 |
| 20260501211624 | 65 | 313 | 7.0 | 13.0 | 0.00 | 0.00 | 0.00 | 29 | 1018.9 |
| 20260501210623 | 65 | 315 | 8.7 | 11.3 | 0.00 | 0.00 | 0.00 | 27 | 1018.9 |
| 20260501205620 | 65 | 315 | 7.8 | 13.0 | 0.00 | 0.00 | 0.00 | 28 | 1019.0 |
| 20260501204616 | 65 | 342 | 7.8 | 13.0 | 0.00 | 0.00 | 0.00 | 28 | 1019.0 |
| 20260501203616 | 65 | 325 | 7.0 | 13.0 | 0.00 | 0.00 | 0.00 | 27 | 1018.9 |
| 20260501202632 | 64 | 327 | 8.7 | 13.0 | 0.00 | 0.00 | 0.00 | 28 | 1018.9 |
| 20260501201628 | 64 | 305 | 9.6 | 13.9 | 0.00 | 0.00 | 0.00 | 28 | 1019.0 |
| 20260501200640 | 64 | 298 | 10.4 | 13.0 | 0.00 | 0.00 | 0.00 | 27 | 1019.0 |
| 20260501195620 | 64 | 350 | 6.1 | 11.3 | 0.00 | 0.00 | 0.00 | 28 | 1019.2 |
| 20260501194617 | 63 | 331 | 6.1 | 13.0 | 0.00 | 0.00 | 0.00 | 27 | 1019.2 |
| 20260501193632 | 64 | 337 | 6.1 | 13.0 | 0.00 | 0.00 | 0.00 | 29 | 1019.2 |
| 20260501192623 | 63 | 309 | 7.0 | 12.2 | 0.00 | 0.00 | 0.00 | 28 | 1019.3 |
| 20260501191623 | 64 | 311 | 10.4 | 13.9 | 0.00 | 0.00 | 0.00 | 27 | 1019.3 |
| 20260501190619 | 65 | 329 | 2.6 | 9.6 | 0.00 | 0.00 | 0.00 | 24 | 1019.5 |
| 20260501185616 | 66 | 122 | 0.0 | 9.6 | 0.00 | 0.00 | 0.00 | 26 | 1019.6 |
| 20260501184652 | 66 | 130 | 7.0 | 12.2 | 0.00 | 0.00 | 0.00 | 24 | 1019.6 |
| 20260501183650 | 65 | 105 | 7.8 | 13.9 | 0.00 | 0.00 | 0.00 | 22 | 1019.8 |
| 20260501182624 | 65 | 48 | 6.1 | 9.6 | 0.00 | 0.00 | 0.00 | 26 | 1019.9 |
| 20260501181617 | 65 | 178 | 7.0 | 10.4 | 0.00 | 0.00 | 0.00 | 25 | 1020.0 |
| 20260501180618 | 64 | 24 | 4.3 | 13.0 | 0.00 | 0.00 | 0.00 | 24 | 1020.1 |
| 20260501175617 | 63 | 118 | 7.8 | 16.5 | 0.00 | 0.00 | 0.00 | 25 | 1020.1 |
| 20260501174616 | 63 | 144 | 6.1 | 18.2 | 0.00 | 0.00 | 0.00 | 26 | 1020.2 |
| 20260501173631 | 63 | 99 | 7.8 | 14.8 | 0.00 | 0.00 | 0.00 | 27 | 1020.2 |
| 20260501171626 | 62 | 93 | 7.8 | 14.8 | 0.00 | 0.00 | 0.00 | 27 | 1020.4 |
| 20260501170618 | 61 | 178 | 9.6 | 16.5 | 0.00 | 0.00 | 0.00 | 28 | 1020.4 |
| 20260501165648 | 61 | 103 | 9.6 | 18.2 | 0.00 | 0.00 | 0.00 | 29 | 1020.4 |
| 20260501164643 | 60 | 136 | 6.1 | 12.2 | 0.00 | 0.00 | 0.00 | 29 | 1020.4 |
| 20260501163619 | 60 | 90 | 9.6 | 16.5 | 0.00 | 0.00 | 0.00 | 29 | 1020.5 |
| 20260501162618 | 59 | 101 | 8.7 | 13.9 | 0.00 | 0.00 | 0.00 | 31 | 1020.6 |